Location: T�bingen+AIT
(48.5342°N, 9.0700°E)
Time: 15:06:53
(UTC+01:00)

Meteor 2-5 Rocket - Pass Details

Date: 14 September 2017
Orbit: 832 x 913 km, 81.2° (Epoch: 17 November)

Event Time Altitude Azimuth Distance (km) Brightness Sun altitude
Rises 20:35:53 0° 351° (N) 3,558 7.3 -10.2°
Reaches altitude 10° 20:38:30 10° 358° (N) 2,609 6.5 -10.6°
Maximum altitude 20:44:14 47° 72° (ENE) 1,182 4.1 -11.5°
Drops below altitude 10° 20:49:52 10° 145° (SE) 2,559 5.7 -12.4°
Enters shadow 20:49:59 - 146° (SE) 2,605 5.8 -12.4°
